Location: Gallinara
(44.0333°N, 8.2333°E)
Time: 10:56:54
(UTC+00:00)

BREEZE M DEB (TANK) - Pass Details

Date: 25 September 2020
Orbit: 298 x 11872 km, 49.5° (Epoch: 24 October)

Event Time Altitude Azimuth Distance (km) Brightness Sun altitude
Rises 03:37:47 0° 302° (WNW) 8,580 8.0 -18.6°
Reaches altitude 10° 03:45:57 10° 299° (WNW) 5,669 7.0 -17.2°
Maximum altitude 03:57:16 40° 236° (SW) 1,497 4.0 -15.2°
Drops below altitude 10° 04:01:10 10° 164° (SSE) 1,955 5.2 -14.5°
Sets 04:02:40 0° 155° (SSE) 2,540 5.9 -14.3°
